Погода в Большой Черниговке

Россия / Самарская область     52°05′42″N   50°52′02″E
темп.,
°C
ветер,
м/с
пор.,
м/с
влажн.,
%
обл.,
%
осадки,
мм/ч
давл.,
гПа
погр.,
м
22 апреля, чт
чт2201:00+4ююв71693100 2.9 1025649
04:00+5юв61485100 3.4 1026480
07:00+5юв71370100 0.3 1026410
10:00+6ююв61271100 0.3 1027440
13:00+8ююв7106399 0.0 1027599
16:00+7ююв71170100 0.0 1027653
19:00+6ююв71087100 0.0 1027701
22:00+5юв5893100 0.0 1027442
23 апреля, пт
пт2301:00+5юв3694100 0.0 1027268
04:00+3в359798 0.0 1026119
07:00+5всв3789100 0.0 1026202
10:00+10в5763100 0.0 1024562
13:00+13вюв6647100 0.0 1023933
16:00+12юв4654100 0.0 1022783
19:00+9ююв3792100 0.4 1022496
22:00+8вюв5894100 4.3 1021570
24 апреля, сб
сб2401:00+7в3689100 0.3 1018879
04:00+7св4794100 1.1 1016387
07:00+7ссв2493100 0.8 1015209
10:00+7сз2389100 1.1 1014300
13:00+8зсз4585100 0.2 1014460
16:00+10сз347136 0.2 1014768
19:00+10ююз117528 0.0 101419
22:00+7ююв498635 0.0 1013147
25 апреля, вс
вс2501:00+9ююз5118892 0.4 1012252
04:00+9юз71390100 0.7 1012539
07:00+6зюз612830 0.6 1014814
10:00+10зюз711554 0.6 10151313
13:00+10зюз81068100 0.5 10171289
16:00+12зюз695197 1.1 10161982
19:00+10зюз475975 0.0 1017202
22:00+8юз3469100 0.0 101869
26 апреля, пн
пн2601:00+7зюз3573100 0.0 101988
04:00+6зсз2276100 0.0 101930
07:00+7ссв2271100 0.0 101895
10:00+10всв2250100 0.0 1017616
13:00+11в2240100 0.0 10171417
16:00+12в1139100 0.0 10151844
19:00+11ююв1253100 0.0 101428
22:00+7ююз47805 0.0 1014151